1282780830658,89.9634
1282780890658,90.0104
1282780950658,90.0703
1282781010658,89.9759
1282781070658,90.3283
1282781130658,89.9800
1282781190658,90.0158
1282781250658,90.1162
1282781310658,89.7870
1282781370658,90.1355
1282781430658,89.9171
1282781490658,89.9453
1282781550658,90.3178
1282781610658,90.0051
1282781670658,90.1087
1282781730658,90.2292
1282781790658,90.1865
1282781850658,90.2768
1282781910658,90.2971
1282781970658,90.4009
1282782030658,90.0920
1282782090658,90.1654
1282782150658,90.1419
1282782210658,90.2338
1282782270658,90.3104
1282782330658,90.0072
1282782390658,89.9705
1282782450658,90.2786
1282782510658,90.1994
1282782570658,90.0600
1282782630658,90.0832
1282782690658,90.2620
1282782750658,90.1848
1282782810658,90.2990
1282782870658,90.1213
1282782930658,90.0634
1282782990658,90.0229
1282783050658,89.9497
1282783110658,90.2381
1282783170658,90.1900
1282783230658,90.2532
1282783290658,90.0235
1282783350658,90.1151
1282783410658,90.1461
1282783470658,90.1530
1282783530658,90.0688
1282783590658,90.0616
1282783650658,90.0921
1282783710658,90.2296
1282783770658,90.2520
1282783830658,90.2309
1282783890658,90.2316
1282783950658,90.3097
1282784010658,90.1733
1282784070658,90.1492
1282784130658,90.4595
1282784190658,90.2863
1282784250658,90.1735
1282784310658,90.2247
1282784370658,90.1413
1282784430668,90.2926
1282784490668,90.2413
1282784550668,90.0805
1282784610668,90.2159
1282784670668,90.2852
1282784730668,90.1295
1282784790668,90.1795
1282784850668,90.2538
1282784910668,90.1911
1282784970668,90.0352
1282785030668,89.9702
1282785090668,90.2544
1282785150668,90.4443
1282785210668,90.0742
1282785270668,90.1213
1282785330668,90.2290
1282785390668,90.0503
1282785450668,90.1752
1282785510668,90.0847
1282785570668,90.1948
1282785630668,90.1210
1282785690668,90.3903
1282785750668,90.0530
1282785810668,90.2531
1282785870668,90.2327
1282785930668,89.9836
1282785990668,90.1513
1282786050668,90.2432
1282786110668,90.1448
1282786170668,90.0822
1282786230668,90.1603
1282786290668,90.1819
1282786350668,90.2073
1282786410668,90.0688
1282786470668,90.0239
1282786530668,90.3919
1282786590668,89.8735
1282786650668,90.2340
1282786710668,90.2226
1282786770668,90.1125
1282786830668,90.1046
1282786890668,89.9576
1282786950668,90.1173
1282787010668,89.9641
1282787070668,90.0771
1282787130668,90.0578
1282787190668,90.2192
1282787250668,90.1599
1282787310668,90.1697
1282787370668,90.1704
1282787430668,90.2469
1282787490668,89.9489
1282787550668,90.3807
1282787610668,90.0576
1282787670668,90.1079
1282787730668,90.1062
1282787790668,90.2180
1282787850668,90.2706
1282787910668,90.1740
1282787970668,89.9688
1282788030677,90.1190
1282788090677,89.9848
1282788150677,90.0285
1282788210677,89.9473
1282788270677,90.0091
1282788330677,90.2092
1282788390677,90.0839
1282788450677,90.1993
1282788510677,90.1287
1282788570677,90.1161
1282788630677,89.8763
1282788690677,90.0161
1282788750677,90.0487
1282788810677,90.1784
1282788870677,90.0999
1282788930677,90.0069
1282788990677,89.9740
1282789050677,90.0369
1282789110677,90.0690
1282789170677,90.1313
1282789230677,90.2723
1282789290677,89.9615
1282789350677,89.9461
1282789410677,90.1210
1282789470677,90.0559
1282789530677,90.1454
1282789590677,90.1289
1282789650677,90.1159
1282789710677,90.2741
1282789770677,90.0111
1282789830677,90.2292
1282789890677,90.0390
1282789950677,89.8412
1282790010677,90.1929
1282790070677,90.0291
1282790130677,89.9710
1282790190677,90.1684
1282790250677,90.1343
1282790310677,89.9617
1282790370677,90.1461
1282790430677,89.9146
1282790490677,90.0907
1282790550677,90.1764
1282790610677,90.1007
1282790670677,89.9640
1282790730677,90.0764
1282790790677,90.0719
1282790850677,90.1305
1282790910677,90.1650
1282790970677,90.2696
1282791030677,90.2509
1282791090677,90.0002
1282791150677,90.1545
1282791210677,90.2064
1282791270677,90.1848
1282791330677,90.0131
1282791390677,90.1685
1282791450677,90.0988
1282791510677,90.2951
1282791570677,90.3319
1282791630687,90.2481
1282791690687,90.2383
1282791750687,90.0886
1282791810687,90.1321
1282791870687,90.1773
1282791930687,90.3897
1282791990687,90.1944
1282792050687,90.1545
1282792110687,90.2370
1282792170687,90.2687
1282792230687,90.0658
1282792290687,90.2368
1282792350687,89.9945
1282792410687,90.4244
1282792470687,90.0394
1282792530687,90.0844
1282792590687,90.0854
1282792650687,90.2217
1282792710687,90.1060
1282792770687,90.2181
1282792830687,90.1039
1282792890687,90.1709
1282792950687,90.1275
1282793010687,90.1420
1282793070687,90.1776
1282793130687,89.8138
1282793190687,90.1808
1282793250687,89.9806
1282793310687,89.9922
1282793370687,90.2376
1282793430687,90.2245
1282793490687,90.0361
1282793550687,90.0880
1282793610687,89.7573
1282793670687,90.0917
1282793730687,90.1534
1282793790687,89.8935
1282793850687,90.0909
1282793910687,89.8466
1282793970687,90.1196
1282794030687,89.8963
1282794090687,89.9172
1282794150687,90.0196
1282794210687,89.9720
1282794270687,89.8880
1282794330687,89.8517
1282794390687,90.1504
1282794450687,89.8166
1282794510687,89.8903
1282794570687,90.1372
1282794630687,89.9457
1282794690687,89.9828
1282794750687,90.0846
1282794810687,90.1632
1282794870687,89.8941
1282794930687,89.9270
1282794990687,89.9482
1282795050687,90.1959
1282795110687,89.8240
1282795170687,89.9115
1282795230696,89.9829
1282795290696,90.0292
1282795350696,89.8785
1282795410696,89.9312
1282795470696,90.1012
1282795530696,89.8403
1282795590696,89.7254
1282795650696,90.0751
1282795710696,90.1385
1282795770696,89.8872
1282795830696,90.1512
1282795890696,90.0507
1282795950696,90.2932
1282796010696,89.8690
1282796070696,90.0451
1282796130696,90.0000
1282796190696,90.0751
1282796250696,90.1250
1282796310696,90.1025
1282796370696,89.7981
1282796430696,90.0551
1282796490696,89.9458
1282796550696,89.9886
1282796610696,90.1641
1282796670696,89.9792
1282796730696,89.9677
1282796790696,90.0167
1282796850696,89.9307
1282796910696,90.1278
1282796970696,89.7874
1282797030696,89.9754
1282797090696,90.0474
1282797150696,89.7872
1282797210696,89.8369
1282797270696,89.8156
1282797330696,89.7852
1282797390696,90.0344
1282797450696,89.8247
1282797510696,89.7552
1282797570696,89.9862
1282797630696,89.9191
1282797690696,89.6766
1282797750696,89.8150
1282797810696,89.9848
1282797870696,89.9861
1282797930696,89.6752
1282797990696,89.9160
1282798050696,89.9369
1282798110696,89.7924
1282798170696,89.7197
1282798230696,89.8017
1282798290696,89.7082
1282798350696,89.9422
1282798410696,89.8792
1282798470696,89.6285
1282798530696,89.5948
1282798590696,89.7399
1282798650696,89.6377
1282798710696,89.5163
1282798770696,89.6772
1282798830705,89.4063
1282798890705,89.5507
1282798950705,89.6074
1282799010705,89.5441
1282799070705,89.6426
1282799130705,89.5225
1282799190705,89.5329
1282799250705,89.4881
1282799310705,89.5516
1282799370705,89.4762
1282799430705,89.4114
1282799490705,89.6178
1282799550705,89.5359
1282799610705,89.2333
1282799670705,89.5139
1282799730705,89.5307
1282799790705,89.4591
1282799850705,89.5683
1282799910705,89.5151
1282799970705,89.3731
1282800030705,89.4378
1282800090705,89.3673
1282800150705,89.6067
1282800210705,89.2672
1282800270705,89.5963
1282800330705,89.6141
1282800390705,89.3098
1282800450705,89.4190
1282800510705,89.4440
1282800570705,89.6512
1282800630705,89.3989
1282800690705,89.4680
1282800750705,89.4890
1282800810705,89.5072
1282800870705,89.5052
1282800930705,89.7268
1282800990705,89.5086
1282801050705,89.5705
1282801110705,89.4648
1282801170705,89.3238
1282801230705,89.2621
1282801290705,89.4634
1282801350705,89.4262
1282801410705,89.2021
1282801470705,89.2978
1282801530705,89.2789
1282801590705,89.0939
1282801650705,89.2526
1282801710705,89.1792
1282801770705,89.1517
1282801830705,89.3835
1282801890705,89.1512
1282801950705,89.2877
1282802010705,89.3594
1282802070705,89.1382
1282802130705,89.2584
1282802190705,89.3001
1282802250705,89.2861
1282802310705,89.3390
1282802370705,89.2089
1282802430715,89.0434
1282802490715,89.0867
1282802550715,89.2338
1282802610715,88.8152
1282802670715,89.3699
1282802730715,89.1416
1282802790715,89.1311
1282802850715,89.1592
1282802910715,89.2840
1282802970715,89.2545
1282803030715,89.2059
1282803090715,89.2202
1282803150715,88.9548
1282803210715,89.1576
1282803270715,88.9954
1282803330715,89.0219
1282803390715,89.2437
1282803450715,88.9144
1282803510715,89.1487
1282803570715,89.2578
1282803630715,88.9123
1282803690715,88.9449
1282803750715,89.1044
1282803810715,89.0970
1282803870715,89.1236
1282803930715,89.2502
1282803990715,88.8797
1282804050715,88.9216
1282804110715,88.9892
1282804170715,88.9902
1282804230715,88.9225
1282804290715,89.1080
1282804350715,88.9830
1282804410715,89.0030
1282804470715,89.1396
1282804530715,89.0174
1282804590715,89.0394
1282804650715,88.9834
1282804710715,89.0253
1282804770715,89.1226
1282804830715,89.1758
1282804890715,89.0440
1282804950715,89.1824
1282805010715,89.0284
1282805070715,89.1278
1282805130715,89.1180
1282805190715,89.0680
1282805250715,89.0547
1282805310715,89.2166
1282805370715,89.2857
1282805430715,89.1292
1282805490715,88.9928
1282805550715,88.9924
1282805610715,88.9481
1282805670715,89.2803
1282805730715,88.9469
1282805790715,89.2401
1282805850715,89.1156
1282805910715,89.1600
1282805970715,89.0602
1282806030724,89.1507
1282806090724,89.0044
1282806150724,88.9222
1282806210724,89.0397
1282806270724,89.1356
1282806330724,89.0527
1282806390724,89.3676
1282806450724,89.2614
1282806510724,89.1897
1282806570724,89.0836
1282806630724,89.1445
1282806690724,89.0521
1282806750724,89.0743
1282806810724,89.0941
1282806870724,89.2416
1282806930724,89.0353
1282806990724,89.0179
1282807050724,89.1043
1282807110724,89.1006
1282807170724,89.1715
1282807230724,88.9036
1282807290724,89.0325
1282807350724,88.8752
1282807410724,89.1322
1282807470724,89.0727
1282807530724,88.9702
1282807590724,88.8304
1282807650724,89.1067
1282807710724,88.9085
1282807770724,89.1598
1282807830724,88.9628
1282807890724,88.9783
1282807950724,88.8049
1282808010724,89.1246
1282808070724,89.0409
1282808130724,88.9153
1282808190724,88.8328
1282808250724,88.7621
1282808310724,88.8264
1282808370724,88.9086
1282808430724,88.9471
1282808490724,89.0055
1282808550724,88.7908
1282808610724,88.7619
1282808670724,88.9698
1282808730724,88.8868
1282808790724,88.9410
1282808850724,88.8091
1282808910724,89.0157
1282808970724,88.7640
1282809030724,88.7820
1282809090724,88.8726
1282809150724,88.8764
1282809210724,88.7002
1282809270724,88.6908
1282809330724,88.8749
1282809390724,88.9924
1282809450724,88.7765
1282809510724,88.7911
1282809570724,88.8644
1282809630734,88.8821
1282809690734,88.7781
1282809750734,88.9396
1282809810734,88.9155
1282809870734,88.8050
1282809930734,88.9443
1282809990734,88.9656
1282810050734,88.7859
1282810110734,88.7690
1282810170734,88.8561
1282810230734,88.8549
1282810290734,88.9148
1282810350734,88.8155
1282810410734,88.7262
1282810470734,88.7958
1282810530734,89.0100
1282810590734,88.9827
1282810650734,88.9693
1282810710734,89.1107
1282810770734,89.0192
1282810830734,88.7986
1282810890734,88.8827
1282810950734,89.2469
1282811010734,89.0225
1282811070734,89.0468
1282811130734,88.7871
1282811190734,88.8829
1282811250734,88.9774
1282811310734,89.0084
1282811370734,88.9648
1282811430734,88.9469
1282811490734,89.1553
1282811550734,89.0079
1282811610734,88.8738
1282811670734,88.9009
1282811730734,88.8995
1282811790734,89.0973
1282811850734,89.0036
1282811910734,89.0404
1282811970734,88.9418
1282812030734,89.0425
1282812090734,89.0648
1282812150734,88.9813
1282812210734,89.0284
1282812270734,89.1466
1282812330734,89.0032
1282812390734,89.1213
1282812450734,89.0052
1282812510734,89.0385
1282812570734,88.9376
1282812630734,89.2592
1282812690734,88.9887
1282812750734,89.0912
1282812810734,89.0758
1282812870734,89.2048
1282812930734,88.9538
1282812990734,88.8993
1282813050734,89.1094
1282813110734,88.9409
1282813170734,89.0051
1282813230744,88.9207
1282813290744,88.8229
1282813350744,88.9792
1282813410744,88.8468
1282813470744,89.1215
1282813530744,89.1503
1282813590744,88.9343
1282813650744,88.9706
1282813710744,88.9929
1282813770744,88.9069
1282813830744,88.8444
1282813890744,89.2725
1282813950744,88.9853
1282814010744,89.0945
1282814070744,88.9497
1282814130744,88.9881
1282814190744,88.9557
1282814250744,88.9684
1282814310744,89.0651
1282814370744,89.2170
1282814430744,88.9543
1282814490744,88.8493
1282814550744,88.9928
1282814610744,88.9484
1282814670744,89.0414
1282814730744,88.8204
1282814790744,88.9592
1282814850744,88.7737
1282814910744,89.0183
1282814970744,88.8537
1282815030744,88.9588
1282815090744,89.0421
1282815150744,89.1763
1282815210744,88.9449
1282815270744,89.3176
1282815330744,89.1593
1282815390744,89.0270
1282815450744,89.1588
1282815510744,89.0576
1282815570744,89.0607
1282815630744,88.9706
1282815690744,88.8616
1282815750744,88.9365
1282815810744,89.2118
1282815870744,89.0484
1282815930744,89.0356
1282815990744,88.9860
1282816050744,88.9784
1282816110744,89.0820
1282816170744,89.1656
1282816230744,89.1471
1282816290744,88.9443
1282816350744,89.1522
1282816410744,89.0697
1282816470744,88.9540
1282816530744,89.2477
1282816590744,89.1335
1282816650744,89.1410
1282816710744,89.1037
1282816770744,88.9384
1282816830754,89.0005
1282816890754,89.1707
1282816950754,89.1429
1282817010754,89.3113
1282817070754,89.1523
1282817130754,89.2902
1282817190754,89.2220
1282817250754,89.1914
1282817310754,89.1505
1282817370754,89.3306
1282817430754,89.1767
1282817490754,89.2206
1282817550754,89.0738
1282817610754,89.1506
1282817670754,89.1064
1282817730754,88.9181
1282817790754,89.0735
1282817850754,89.1405
1282817910754,89.2057
1282817970754,89.3424
1282818030754,89.3438
1282818090754,89.0481
1282818150754,89.1214
1282818210754,89.4948
1282818270754,89.2016
1282818330754,89.2572
1282818390754,89.1489
1282818450754,89.0052
1282818510754,89.1673
1282818570754,89.1424
1282818630754,89.0280
1282818690754,89.0725
1282818750754,89.1552
1282818810754,88.9798
1282818870754,89.1765
1282818930754,89.1012
1282818990754,89.0776
1282819050754,89.3307
1282819110754,89.2765
1282819170754,89.1698
1282819230754,89.2959
1282819290754,89.3317
1282819350754,89.4485
1282819410754,89.1551
1282819470754,89.3823
1282819530754,89.2019
1282819590754,89.3955
1282819650754,89.3666
1282819710754,89.3877
1282819770754,89.1481
1282819830754,89.1824
1282819890754,89.2588
1282819950754,89.0977
1282820010754,89.3388
1282820070754,89.0032
1282820130754,89.1524
1282820190754,89.2942
1282820250754,89.0503
1282820310754,88.6464
1282820370754,89.0554
1282820430764,88.9718
1282820490764,89.2174
1282820550764,89.3591
1282820610764,89.2747
1282820670764,89.2360
1282820730764,89.4123
1282820790764,88.8512
1282820850764,89.0568
1282820910764,89.1744
1282820970764,89.0116
1282821030764,89.1902
1282821090764,89.1436
1282821150764,89.1135
1282821210764,89.0570
1282821270764,89.2349
1282821330764,89.1319
1282821390764,89.1401
1282821450764,88.9900
1282821510764,89.0107
1282821570764,89.1295
1282821630764,89.1177
1282821690764,89.0308
1282821750764,89.0979
1282821810764,89.0698
1282821870764,89.0061
1282821930764,89.0212
1282821990764,89.2406
1282822050764,88.9877
1282822110764,89.0096
1282822170764,89.1240
1282822230764,89.1862
1282822290764,89.1913
1282822350764,89.1752
1282822410764,89.0938
1282822470764,89.0676
1282822530764,89.3050
1282822590764,89.1514
1282822650764,89.7630
1282822710764,89.0604
1282822770764,88.8825
1282822830764,89.1705
1282822890764,88.9389
1282822950764,89.1803
1282823010764,89.1025
1282823070764,89.1064
1282823130764,88.9911
1282823190764,89.5389
1282823250764,89.1854
1282823310764,89.3437
1282823370764,89.1792
1282823430764,89.1194
1282823490764,89.2774
1282823550764,89.2584
1282823610764,89.2779
1282823670764,89.3467
1282823730764,89.3239
1282823790764,89.1647
1282823850764,89.3476
1282823910764,89.4156
1282823970764,89.3321
1282824030774,89.4253
1282824090774,89.3663
1282824150774,89.5673
1282824210774,89.6100
1282824270774,89.5722
1282824330774,89.4285
1282824390774,89.5942
1282824450774,89.5398
1282824510774,89.4829
1282824570774,89.4009
1282824630774,89.3186
1282824690774,89.3923
1282824750774,89.4101
1282824810774,89.4546
1282824870774,89.3422
1282824930774,89.4361
1282824990774,89.3032
1282825050774,89.3676
1282825110774,89.2565
1282825170774,89.2939
1282825230774,89.2331
1282825290774,89.0023
1282825350774,89.2029
1282825410774,89.0362
1282825470774,89.1863
1282825530774,89.3573
1282825590774,89.1385
1282825650774,89.4369
1282825710774,89.1553
1282825770774,89.2572
1282825830774,89.3044
1282825890774,89.4442
1282825950774,89.0183
1282826010774,89.3511
1282826070774,89.2265
1282826130774,89.1166
1282826190774,89.1557
1282826250774,89.2619
1282826310774,89.2330
1282826370774,89.1562
1282826430774,89.2045
1282826490774,89.2940
1282826550774,89.1021
1282826610774,89.2992
1282826670774,89.4352
1282826730774,89.2880
1282826790774,89.3623
1282826850774,89.0954
1282826910774,89.4713
1282826970774,89.4062
1282827030774,89.1966
1282827090774,89.1887
1282827150774,89.3534
1282827210774,89.3820
1282827270774,89.3846
1282827330774,89.4498
1282827390774,89.3510
1282827450774,89.3292
1282827510774,89.3781
1282827570774,89.2252
1282827630785,89.4052
1282827690785,89.1468
1282827750785,89.3799
1282827810785,89.5361
1282827870785,89.1539
1282827930785,89.3707
1282827990785,89.2943
1282828050785,89.3063
1282828110785,89.3104
1282828170785,89.1525
1282828230785,89.3771
1282828290785,89.3037
1282828350785,89.2610
1282828410785,89.3646
1282828470785,89.2431
1282828530785,89.3797
1282828590785,89.2860
1282828650785,89.1498
1282828710785,89.2553
1282828770785,89.2277
1282828830785,89.4407
1282828890785,89.2427
1282828950785,89.0606
1282829010785,89.0397
1282829070785,89.1319
1282829130785,89.0982
1282829190785,89.1314
1282829250785,89.2223
1282829310785,89.2276
1282829370785,89.0429
1282829430785,89.2176
1282829490785,89.0896
1282829550785,89.2350
1282829610785,89.1514
1282829670785,89.0004
1282829730785,89.1952
1282829790785,89.1707
1282829850785,89.1688
1282829910785,89.2123
1282829970785,89.1192
1282830030785,89.0700
1282830090785,89.1466
1282830150785,89.0750
1282830210785,89.1735
1282830270785,89.0095
1282830330785,89.0856
1282830390785,89.1067
1282830450785,89.1022
1282830510785,89.0639
1282830570785,89.0646
1282830630785,88.9612
1282830690785,89.1644
1282830750785,89.1852
1282830810785,89.0562
1282830870785,89.0549
1282830930785,89.2272
1282830990785,89.0419
1282831050785,89.3260
1282831110785,89.0907
1282831170785,89.1322
1282831230795,88.9282
1282831290795,89.0734
1282831350795,89.0912
1282831410795,89.1312
1282831470795,89.1864
1282831530795,89.0074
1282831590795,88.9036
1282831650795,89.0329
1282831710795,88.9327
1282831770795,89.1562
1282831830795,89.2614
1282831890795,88.8686
1282831950795,88.9995
1282832010795,88.8709
1282832070795,89.0796
1282832130795,89.1262
1282832190795,89.0071
1282832250795,89.1845
1282832310795,88.8830
1282832370795,89.2315
1282832430795,88.7755
1282832490795,89.0067
1282832550795,89.0340
1282832610795,89.1053
1282832670795,88.9717
1282832730795,88.8347
1282832790795,88.9659
1282832850795,88.9135
1282832910795,89.0321
1282832970795,88.8182
1282833030795,88.8625
1282833090795,88.9974
1282833150795,88.9796
1282833210795,88.6953
1282833270795,88.7911
1282833330795,89.0478
1282833390795,88.9461
1282833450795,89.0687
1282833510795,88.8668
1282833570795,89.1169
1282833630795,88.9855
1282833690795,88.8180
1282833750795,89.0380
1282833810795,88.9364
1282833870795,89.0602
1282833930795,88.9335
1282833990795,88.9188
1282834050795,88.8890
1282834110795,89.0866
1282834170795,88.8514
1282834230795,89.0457
1282834290795,89.0354
1282834350795,88.8585
1282834410795,89.1709
1282834470795,88.9203
1282834530795,88.7878
1282834590795,88.7098
1282834650795,88.9554
1282834710795,88.9330
1282834770795,89.0177
1282834830806,88.9514
1282834890806,88.8348
1282834950806,88.9588
1282835010806,88.9706
1282835070806,88.9554
1282835130806,89.0647
1282835190806,88.7781
1282835250806,88.8857
1282835310806,88.7768
1282835370806,88.9767
1282835430806,88.8945
1282835490806,88.9464
1282835550806,89.0038
1282835610806,88.7787
1282835670806,88.9258
1282835730806,88.7254
1282835790806,88.8519
1282835850806,88.9531
1282835910806,88.7697
1282835970806,88.8131
1282836030806,88.9989
1282836090806,89.0369
1282836150806,88.9214
1282836210806,88.7153
1282836270806,88.8524
1282836330806,88.7919
1282836390806,88.8152
1282836450806,89.0937
1282836510806,88.9257
1282836570806,88.9873
1282836630806,88.9145
1282836690806,88.9946
1282836750806,88.9355
1282836810806,88.9468
1282836870806,88.8094
1282836930806,88.9707
1282836990806,88.9307
1282837050806,88.8543
1282837110806,88.8954
1282837170806,88.9351
1282837230806,89.0304
1282837290806,88.8641
1282837350806,88.8471
1282837410806,88.8652
1282837470806,89.0053
1282837530806,89.0917
1282837590806,88.7187
1282837650806,89.0056
1282837710806,88.8824
1282837770806,88.9969
1282837830806,88.8125
1282837890806,88.9358
1282837950806,88.9458
1282838010806,88.9494
1282838070806,88.8598
1282838130806,88.9163
1282838190806,89.1976
1282838250806,89.0650
1282838310806,88.9488
1282838370806,89.1138
1282838430817,88.9571
1282838490817,89.0424
1282838550817,88.9306
1282838610817,88.9420
1282838670817,88.9828
1282838730817,88.9740
1282838790817,89.1677
1282838850817,89.0358
1282838910817,88.9488
1282838970817,89.2141
1282839030817,89.0429
1282839090817,88.9545
1282839150817,89.0884
1282839210817,89.3441
1282839270817,89.1306
1282839330817,89.2562
1282839390817,89.2262
1282839450817,88.9564
1282839510817,89.2469
1282839570817,89.0706
1282839630817,88.9614
1282839690817,89.1338
1282839750817,89.1338
1282839810817,89.0875
1282839870817,89.4173
1282839930817,89.1469
1282839990817,89.1293
1282840050817,89.0567
1282840110817,89.2306
1282840170817,89.1131
1282840230817,89.2738
1282840290817,88.9342
1282840350817,89.1348
1282840410817,89.1574
1282840470817,89.0719
1282840530817,89.1459
1282840590817,89.2342
1282840650817,89.2435
1282840710817,89.0061
1282840770817,89.3849
1282840830817,89.0982
1282840890817,89.1738
1282840950817,89.2790
1282841010817,89.0621
1282841070817,89.1335
1282841130817,89.1774
1282841190817,89.0909
1282841250817,88.9850
1282841310817,88.9121
1282841370817,88.9470
1282841430817,89.2376
1282841490817,89.0380
1282841550817,88.9198
1282841610817,89.2382
1282841670817,88.9853
1282841730817,89.1820
1282841790817,89.2000
1282841850817,88.9926
1282841910817,88.9316
1282841970817,89.0301
1282842030828,89.1368
1282842090828,89.0403
1282842150828,89.1523
1282842210828,89.2569
1282842270828,89.1359
1282842330828,88.9909
1282842390828,89.0074
1282842450828,89.1259
1282842510828,88.9193
1282842570828,89.1620
1282842630828,89.0116
1282842690828,88.9515
1282842750828,88.9020
1282842810828,88.9169
1282842870828,89.0537
1282842930828,89.0831
1282842990828,89.0599
1282843050828,88.8647
1282843110828,88.9254
1282843170828,88.8194
1282843230828,88.7426
1282843290828,88.8144
1282843350828,88.8370
1282843410828,88.7929
1282843470828,88.8520
1282843530828,88.9060
1282843590828,88.9422
1282843650828,88.9388
1282843710828,88.8053
1282843770828,88.7759
1282843830828,88.8232
1282843890828,88.6796
1282843950828,88.8468
1282844010828,88.9341
1282844070828,88.8832
1282844130828,89.0117
1282844190828,88.6668
1282844250828,88.9529
1282844310828,89.0576
1282844370828,89.0727
1282844430828,89.0522
1282844490828,88.8891
1282844550828,88.8166
1282844610828,88.7995
1282844670828,88.9592
1282844730828,88.9663
1282844790828,88.8925
1282844850828,88.8916
1282844910828,89.0060
1282844970828,89.0271
1282845030828,88.8811
1282845090828,88.8197
1282845150828,88.7845
1282845210828,88.8637
1282845270828,89.0773
1282845330828,88.9238
1282845390828,89.0314
1282845450828,88.8470
1282845510828,88.9792
1282845570828,88.8703
1282845630839,89.2288
1282845690839,88.7670
1282845750839,89.0573
1282845810839,88.9650
1282845870839,88.9449
1282845930839,88.8450
1282845990839,89.0193
1282846050839,89.2076
1282846110839,88.8309
1282846170839,88.7614